• In Belgium
  • List of Countries
  • For 7 days
  • Water Temperature
  • Satellite Maps
  • Weather Map
  • Weather Widgets
  • user-avatar
    Login

    Hourly Weather Benguela

    Today, 20 September, Wednesday

    Time Temperature Precipitation Wind Pressure Humidity
    00:00 +25°C° 0 mm 1 mps 761 mmHg 82%
    01:00 +25°C° 0 mm 1 mps 761 mmHg 82%
    02:00 +25°C° 0 mm 1 mps 761 mmHg 83%
    03:00 +25°C° 0 mm 1 mps 760 mmHg 84%
    04:00 +25°C° 0 mm 2 mps 760 mmHg 85%
    05:00 +25°C° 0 mm 2 mps 760 mmHg 83%
    06:00 +25°C° 0 mm 2 mps 760 mmHg 80%
    07:00 +26°C° 0 mm 2 mps 760 mmHg 77%
    08:00 +29°C° 0 mm 2 mps 760 mmHg 67%
    09:00 +31°C° 0 mm 3 mps 760 mmHg 57%
    10:00 +35°C° 0 mm 3 mps 759 mmHg 46%
    11:00 +36°C° 0 mm 4 mps 759 mmHg 44%
    12:00 +36°C° 0 mm 4 mps 758 mmHg 43%
    13:00 +37°C° 0 mm 5 mps 757 mmHg 41%
    14:00 +36°C° 0 mm 5 mps 757 mmHg 45%
    15:00 +35°C° 0 mm 4 mps 756 mmHg 48%
    16:00 +34°C° 0 mm 4 mps 756 mmHg 52%
    17:00 +32°C° 0 mm 4 mps 757 mmHg 58%
    18:00 +29°C° 0 mm 3 mps 758 mmHg 64%
    19:00 +28°C° 0 mm 2 mps 758 mmHg 70%
    20:00 +27°C° 0 mm 2 mps 759 mmHg 71%
    21:00 +27°C° 0 mm 2 mps 760 mmHg 72%
    22:00 +27°C° 0 mm 2 mps 760 mmHg 73%
    23:00 +27°C° 0 mm 2 mps 760 mmHg 74%

    Tomorrow, 21 September, Thursday

    Time Temperature Precipitation Wind Pressure Humidity
    00:00 +26°C° 0 mm 3 mps 760 mmHg 74%
    01:00 +26°C° 0 mm 3 mps 759 mmHg 75%
    02:00 +26°C° 0 mm 3 mps 759 mmHg 75%
    03:00 +26°C° 0 mm 2 mps 759 mmHg 76%
    04:00 +25°C° 0 mm 2 mps 759 mmHg 77%
    05:00 +26°C° 0 mm 2 mps 759 mmHg 76%
    06:00 +26°C° 0 mm 2 mps 760 mmHg 74%
    07:00 +26°C° 0 mm 2 mps 760 mmHg 73%
    08:00 +29°C° 0 mm 2 mps 760 mmHg 63%
    09:00 +31°C° 0 mm 3 mps 760 mmHg 54%
    10:00 +35°C° 0 mm 3 mps 760 mmHg 44%
    11:00 +36°C° 0 mm 4 mps 759 mmHg 43%
    12:00 +36°C° 0 mm 4 mps 758 mmHg 42%
    13:00 +37°C° 0 mm 5 mps 758 mmHg 41%
    14:00 +35°C° 0 mm 4 mps 757 mmHg 45%
    15:00 +34°C° 0 mm 4 mps 757 mmHg 49%
    16:00 +32°C° 0 mm 4 mps 757 mmHg 54%
    17:00 +30°C° 0 mm 4 mps 758 mmHg 59%
    18:00 +29°C° 0 mm 3 mps 758 mmHg 64%
    19:00 +27°C° 0 mm 3 mps 759 mmHg 69%
    20:00 +27°C° 0 mm 2 mps 759 mmHg 71%
    21:00 +26°C° 0 mm 2 mps 760 mmHg 74%
    22:00 +26°C° 0 mm 2 mps 760 mmHg 76%
    23:00 +25°C° 0 mm 2 mps 760 mmHg 78%

    Day after tomorrow, 22 September, Friday

    Time Temperature Precipitation Wind Pressure Humidity
    00:00 +25°C° 0 mm 2 mps 760 mmHg 79%
    01:00 +25°C° 0 mm 2 mps 759 mmHg 81%
    02:00 +24°C° 0 mm 2 mps 759 mmHg 82%
    03:00 +24°C° 0 mm 2 mps 759 mmHg 82%
    04:00 +24°C° 0 mm 2 mps 758 mmHg 83%
    05:00 +24°C° 0 mm 2 mps 759 mmHg 80%
    06:00 +25°C° 0 mm 2 mps 759 mmHg 77%
    07:00 +26°C° 0 mm 1 mps 760 mmHg 74%
    08:00 +28°C° 0 mm 2 mps 760 mmHg 64%
    09:00 +30°C° 0 mm 2 mps 760 mmHg 54%
    10:00 +34°C° 0 mm 3 mps 760 mmHg 44%
    11:00 +34°C° 0 mm 3 mps 759 mmHg 43%
    12:00 +35°C° 0 mm 4 mps 758 mmHg 42%
    13:00 +36°C° 0 mm 4 mps 757 mmHg 41%
    14:00 +34°C° 0 mm 4 mps 757 mmHg 45%
    15:00 +33°C° 0 mm 4 mps 757 mmHg 48%
    16:00 +32°C° 0 mm 4 mps 756 mmHg 52%
    17:00 +29°C° 0 mm 4 mps 757 mmHg 60%
    18:00 +27°C° 0 mm 3 mps 758 mmHg 68%
    19:00 +26°C° 0 mm 2 mps 759 mmHg 76%
    20:00 +25°C° 0 mm 2 mps 759 mmHg 78%
    21:00 +25°C° 0 mm 2 mps 760 mmHg 79%
    22:00 +25°C° 0 mm 2 mps 760 mmHg 81%
    23:00 +24°C° 0 mm 2 mps 760 mmHg 81%

    23 September, Saturday

    Time Temperature Precipitation Wind Pressure Humidity
    00:00 +24°C° 0 mm 2 mps 759 mmHg 82%
    01:00 +24°C° 0 mm 2 mps 759 mmHg 83%
    02:00 +24°C° 0 mm 2 mps 759 mmHg 83%
    03:00 +24°C° 0 mm 1 mps 759 mmHg 84%
    04:00 +24°C° 0 mm 1 mps 759 mmHg 84%
    05:00 +24°C° 0 mm 1 mps 759 mmHg 83%
    06:00 +24°C° 0 mm 1 mps 759 mmHg 82%
    07:00 +24°C° 0 mm 1 mps 760 mmHg 81%
    08:00 +27°C° 0 mm 1 mps 760 mmHg 70%
    09:00 +30°C° 0 mm 2 mps 760 mmHg 59%
    10:00 +32°C° 0 mm 2 mps 759 mmHg 48%
    11:00 +34°C° 0 mm 3 mps 759 mmHg 46%
    12:00 +34°C° 0 mm 4 mps 758 mmHg 45%
    13:00 +35°C° 0 mm 4 mps 757 mmHg 43%
    14:00 +34°C° 0 mm 4 mps 757 mmHg 48%
    15:00 +32°C° 0 mm 4 mps 757 mmHg 52%
    16:00 +30°C° 0 mm 4 mps 757 mmHg 56%
    17:00 +28°C° 0 mm 3 mps 758 mmHg 64%
    18:00 +27°C° 0 mm 3 mps 759 mmHg 72%
    19:00 +25°C° 0 mm 2 mps 759 mmHg 80%
    20:00 +25°C° 0 mm 2 mps 760 mmHg 80%
    21:00 +25°C° 0 mm 1 mps 760 mmHg 81%
    22:00 +25°C° 0 mm 1 mps 761 mmHg 81%
    23:00 +24°C° 0 mm 1 mps 761 mmHg 83%

    24 September, Sunday

    Time Temperature Precipitation Wind Pressure Humidity
    00:00 +24°C° 0 mm 1 mps 760 mmHg 84%
    01:00 +24°C° 0 mm 1 mps 760 mmHg 86%
    02:00 +24°C° 0 mm 1 mps 760 mmHg 86%
    03:00 +23°C° 0 mm 1 mps 760 mmHg 87%
    04:00 +23°C° 0 mm 1 mps 760 mmHg 87%
    05:00 +23°C° 0 mm 1 mps 761 mmHg 85%
    06:00 +24°C° 0 mm 1 mps 761 mmHg 84%
    07:00 +24°C° 0 mm 2 mps 761 mmHg 82%
    08:00 +26°C° 0 mm 2 mps 761 mmHg 71%
    09:00 +29°C° 0 mm 3 mps 761 mmHg 60%
    10:00 +31°C° 0 mm 3 mps 760 mmHg 48%
    11:00 +33°C° 0 mm 3 mps 759 mmHg 46%
    12:00 +34°C° 0 mm 4 mps 758 mmHg 43%
    13:00 +35°C° 0 mm 4 mps 757 mmHg 40%
    14:00 +34°C° 0 mm 4 mps 757 mmHg 44%
    15:00 +33°C° 0 mm 4 mps 757 mmHg 48%
    16:00 +32°C° 0 mm 4 mps 757 mmHg 53%
    17:00 +29°C° 0 mm 4 mps 758 mmHg 59%
    18:00 +27°C° 0 mm 3 mps 758 mmHg 66%
    19:00 +25°C° 0 mm 2 mps 759 mmHg 73%
    20:00 +25°C° 0 mm 2 mps 760 mmHg 75%
    21:00 +25°C° 0 mm 2 mps 760 mmHg 76%
    22:00 +25°C° 0 mm 1 mps 760 mmHg 77%
    23:00 +24°C° 0 mm 1 mps 760 mmHg 78%

    25 September, Monday

    Time Temperature Precipitation Wind Pressure Humidity
    00:00 +24°C° 0 mm 1 mps 760 mmHg 79%
    01:00 +24°C° 0 mm 1 mps 759 mmHg 80%
    02:00 +24°C° 0 mm 1 mps 759 mmHg 81%
    03:00 +23°C° 0 mm 1 mps 759 mmHg 82%
    04:00 +23°C° 0 mm 1 mps 759 mmHg 82%
    05:00 +24°C° 0 mm 1 mps 759 mmHg 79%
    06:00 +24°C° 0 mm 1 mps 759 mmHg 76%
    07:00 +25°C° 0 mm 1 mps 760 mmHg 72%
    08:00 +27°C° 0 mm 1 mps 759 mmHg 62%
    09:00 +30°C° 0 mm 2 mps 759 mmHg 52%
    10:00 +34°C° 0 mm 2 mps 759 mmHg 42%
    11:00 +34°C° 0 mm 3 mps 758 mmHg 41%
    12:00 +35°C° 0 mm 3 mps 757 mmHg 41%
    13:00 +35°C° 0 mm 4 mps 756 mmHg 41%
    14:00 +34°C° 0 mm 4 mps 756 mmHg 44%
    15:00 +34°C° 0 mm 4 mps 756 mmHg 47%
    16:00 +33°C° 0 mm 4 mps 756 mmHg 50%
    17:00 +30°C° 0 mm 3 mps 756 mmHg 58%
    18:00 +28°C° 0 mm 3 mps 757 mmHg 65%
    19:00 +26°C° 0 mm 3 mps 758 mmHg 73%
    20:00 +26°C° 0 mm 2 mps 758 mmHg 75%
    21:00 +25°C° 0 mm 2 mps 759 mmHg 78%
    22:00 +25°C° 0 mm 2 mps 759 mmHg 80%
    23:00 +24°C° 0 mm 2 mps 759 mmHg 82%
    Show more